Regional Weather Roundup
Issued by NWS Goodland, KS

Home | Current Version | Previous Version | Graphics & Text | Print | Product List | Glossary On
Versions: 1 2 3 4 5 6 7 8 9 10 11 12 13 14 15 16 17 18 19 20 21 22 23 24 25 26 27 28 29 30 31 32 33 34 35 36 37 38 39 40 41 42 43 44 45 46 47 48 49 50
000
ASUS43 KGLD 200859
RWRGLD

GOODLAND FORECAST AREA HOURLY WEATHER ROUNDUP
NATIONAL WEATHER SERVICE GOODLAND KS
200 AM MST FRI JAN 20 2017

...OFFICIAL OBSERVATIONS...

CITY           SKY/WX    TMP DP  RH WIND       PRES   REMARKS
GOODLAND KS    FOG       30  30 100 CALM      29.48R VSB 1/2
HILL CITY KS   FOG       40  40 100 CALM      29.53R VSB 1/4
IMPERIAL NEB   FOG       30  29  96 SW9       29.49S VSB 1/2
MCCOOK NEB     FOG       33  33 100 CALM      29.51R VSB 1/4
AKRON CO       CLOUDY    33  22  63 NE5       29.46F
BURLINGTON CO  CLOUDY    27  25  92 W8        29.47S
LIMON CO       CLOUDY    24  22  91 SW6       29.49R
$$

...UNOFFICIAL OBSERVATIONS...

CITY           SKY/WX    TMP DP  RH WIND       PRES   REMARKS
NORTON KS      FOG       36  34  93 CALM      29.51R VSB 1/2
SHARON SPRINGS   N/A     32  31  96 CALM        N/A
KIT CARSON CO    N/A     25  23  90 CALM        N/A
YUMA CO        FAIR      32  23  69 N10       29.46F
$$



USA.gov is the U.S. government's official web portal to all federal, state and local government web resources and services.